Location: Perryvale
(54.4667°N, 113.3833°W)
Time: 23:08:15
(UTC+00:00)

SR - Pass Details

Date: 25 May 2024
Orbit: 580 x 858 km, 66.7° (Epoch: 13 June)

Event Time Altitude Azimuth Distance (km) Brightness Sun altitude
Rises 06:32:15 0° 312° (NW) 2,975 ? -13.5°
Reaches altitude 10° 06:35:02 10° 327° (NNW) 2,017 ? -13.5°
Maximum altitude 06:38:38 23° 21° (NNE) 1,313 ? -13.7°
Drops below altitude 10° 06:42:06 10° 74° (ENE) 1,929 ? -13.8°
Sets 06:44:41 0° 90° (E) 2,810 ? -13.8°
